EW4423 Weather Reports


Display with metric or nautical units.
time (UTC)temp
F
wind
direction
speed
MPH
gust
MPH
rain 1hr
in
rain 24hr
in
rain mn
in
humidity
%
barometer
mb
20260906014539 79 169 3.0 13.0 0.00 0.00 0.00 84 1014.9
20260906013032 80 183 6.0 9.0 0.00 0.00 0.00 82 1014.7
20260906011518 80 152 4.0 5.0 0.00 0.00 0.00 80 1014.3
20260906010054 80 158 1.0 4.0 0.00 0.00 0.00 79 1014.2
20260906004528 80 165 3.0 5.0 0.00 0.00 0.00 79 1013.9
20260906003024 81 173 3.0 6.0 0.00 0.00 0.00 79 1013.9
20260906001520 81 177 3.0 7.0 0.00 0.00 0.00 78 1014.1
20260906000032 81 172 2.0 4.0 0.00 0.00 0.00 77 1014.2
20260905234526 83 202 7.0 10.0 0.00 0.00 0.00 75 1014.1
20260905233031 83 190 7.0 9.0 0.00 0.00 0.00 72 1014.2
20260905231536 83 186 4.0 13.0 0.00 0.00 0.00 71 1014.2
20260905230037 84 206 9.0 15.0 0.00 0.00 0.00 69 1014.0
20260905224535 85 192 8.0 12.0 0.00 0.00 0.00 64 1013.9
20260905223035 86 205 5.0 11.0 0.00 0.00 0.00 59 1013.8
20260905221535 86 106 0.0 3.0 0.00 0.00 0.00 60 1013.7
20260905220036 84 259 0.0 6.0 0.00 0.00 0.00 62 1013.6
20260905214523 84 181 3.0 11.0 0.00 0.00 0.00 63 1013.3
20260905213029 85 149 10.0 16.0 0.00 0.00 0.00 65 1013.2
20260905211536 90 140 10.0 27.0 0.00 0.00 0.00 56 1013.2
20260905210036 97 175 5.0 13.0 0.00 0.00 0.00 45 1013.0
20260905204523 100 200 6.0 9.0 0.00 0.00 0.00 43 1013.1
20260905203034 96 112 3.0 5.0 0.00 0.00 0.00 46 1013.4
20260905201505 96 92 2.0 6.0 0.00 0.00 0.00 46 1013.7
20260905200017 98 141 4.0 9.0 0.00 0.00 0.00 44 1013.8
20260905194504 98 110 3.0 6.0 0.00 0.00 0.00 42 1013.9
20260905193021 100 270 3.0 12.0 0.00 0.00 0.00 44 1014.2
20260905191525 99 270 6.0 9.0 0.00 0.00 0.00 45 1014.5
20260905190005 97 290 4.0 9.0 0.00 0.00 0.00 47 1014.8
20260905184510 95 330 2.0 8.0 0.00 0.00 0.00 48 1015.0
20260905183019 98 285 5.0 9.0 0.00 0.00 0.00 44 1015.2
20260905181515 95 165 2.0 4.0 0.00 0.00 0.00 47 1015.5
20260905180024 91 143 6.0 12.0 0.00 0.00 0.00 54 1016.1
20260905174507 93 86 2.0 5.0 0.00 0.00 0.00 50 1016.0
20260905173013 98 194 4.0 9.0 0.00 0.00 0.00 45 1016.2
20260905171520 95 276 1.0 5.0 0.00 0.00 0.00 49 1016.4
20260905170015 92 80 3.0 5.0 0.00 0.00 0.00 52 1016.5
20260905164526 93 332 1.0 6.0 0.00 0.00 0.00 52 1016.6
20260905163026 95 209 1.0 6.0 0.00 0.00 0.00 51 1016.8
20260905161520 93 300 1.0 4.0 0.00 0.00 0.00 54 1017.0
20260905160024 92 359 2.0 5.0 0.00 0.00 0.00 54 1017.1
20260905154512 91 256 1.0 5.0 0.00 0.00 0.00 56 1017.0
20260905153024 89 256 3.0 6.0 0.00 0.00 0.00 58 1016.8
20260905151519 89 303 1.0 5.0 0.00 0.00 0.00 60 1016.7
20260905150021 88 281 2.0 7.0 0.00 0.00 0.00 63 1016.8
20260905144533 87 319 4.0 8.0 0.00 0.00 0.00 64 1016.9
20260905143026 87 304 2.0 9.0 0.00 0.00 0.00 65 1016.8
20260905141518 85 298 2.0 7.0 0.00 0.00 0.00 69 1016.8
20260905140013 83 272 1.0 5.0 0.00 0.00 0.00 71 1016.8
20260905134515 82 236 2.0 3.0 0.00 0.00 0.00 74 1016.5
20260905133024 81 227 1.0 4.0 0.00 0.00 0.00 77 1016.5
20260905131528 80 177 0.0 2.0 0.00 0.00 0.00 79 1016.4
20260905130031 77 177 0.0 0.0 0.00 0.00 0.00 83 1016.5
20260905124531 76 175 0.0 0.0 0.00 0.00 0.00 84 1016.6
20260905123032 75 174 0.0 0.0 0.00 0.00 0.00 86 1016.5
20260905121528 75 174 0.0 0.0 0.00 0.00 0.00 85 1016.2
20260905120031 75 174 0.0 0.0 0.00 0.00 0.00 84 1016.0
20260905114513 76 174 0.0 0.0 0.00 0.00 0.00 83 1016.0
20260905113004 75 174 0.0 0.0 0.00 0.00 0.00 85 1015.9
20260905111504 76 174 0.0 0.0 0.00 0.00 0.00 82 1015.9
20260905110006 76 174 0.0 0.0 0.00 0.00 0.00 83 1015.9
20260905104505 76 174 0.0 0.0 0.00 0.00 0.00 83 1015.9
20260905103015 75 174 0.0 1.0 0.00 0.00 0.00 84 1015.8
20260905101505 77 174 0.0 2.0 0.00 0.00 0.00 82 1015.7
20260905100006 77 174 0.0 2.0 0.00 0.00 0.00 81 1015.7
20260905094528 77 174 0.0 0.0 0.00 0.00 0.00 80 1015.7
20260905093007 77 174 1.0 3.0 0.00 0.00 0.00 80 1015.5
20260905091518 78 173 2.0 2.0 0.00 0.00 0.00 79 1015.5
20260905090029 78 173 1.0 3.0 0.00 0.00 0.00 79 1015.5
20260905084509 77 172 3.0 4.0 0.00 0.00 0.00 80 1015.3
20260905083010 78 172 2.0 3.0 0.00 0.00 0.00 79 1015.3
20260905081506 78 172 1.0 2.0 0.00 0.00 0.00 79 1015.3
20260905080017 78 172 0.0 2.0 0.00 0.00 0.00 77 1015.3
20260905074528 79 172 1.0 2.0 0.00 0.00 0.00 77 1015.4
20260905073014 79 172 1.0 3.0 0.00 0.00 0.00 75 1015.4
20260905071512 80 171 0.0 1.0 0.00 0.00 0.00 74 1015.6
20260905070018 78 171 0.0 2.0 0.00 0.00 0.00 77 1015.7
20260905064517 80 171 1.0 2.0 0.00 0.00 0.00 73 1015.9
20260905063026 79 171 0.0 2.0 0.00 0.00 0.00 75 1015.8
20260905061519 80 171 1.0 2.0 0.00 0.00 0.00 73 1015.8
20260905060012 81 171 0.0 2.0 0.00 0.00 0.00 72 1015.7
20260905054526 81 172 1.0 3.0 0.00 0.00 0.00 71 1015.6
20260905053018 81 162 3.0 4.0 0.00 0.00 0.00 70 1015.5
20260905051525 82 169 1.0 2.0 0.00 0.00 0.00 69 1015.5
20260905050010 82 165 1.0 2.0 0.00 0.00 0.00 69 1015.5
20260905044524 82 165 1.0 3.0 0.00 0.00 0.00 69 1015.4
20260905043023 83 165 1.0 2.0 0.00 0.00 0.00 67 1015.4
20260905041513 83 165 1.0 3.0 0.00 0.00 0.00 66 1015.4
20260905040025 83 164 2.0 3.0 0.00 0.00 0.00 66 1015.5
20260905034513 84 131 3.0 6.0 0.00 0.00 0.00 65 1015.5
20260905033017 84 131 2.0 5.0 0.00 0.00 0.00 65 1015.4
20260905031523 84 122 3.0 5.0 0.00 0.00 0.00 64 1015.4
20260905030027 84 136 2.0 3.0 0.00 0.00 0.00 64 1015.3
20260905024529 85 158 2.0 4.0 0.00 0.00 0.00 61 1015.2
20260905023030 86 167 3.0 4.0 0.00 0.00 0.00 61 1014.9
20260905021528 86 176 1.0 3.0 0.00 0.00 0.00 60 1014.8
20260905020029 87 177 1.0 3.0 0.00 0.00 0.00 58 1014.5